NOAA 15 (25338 NORAD) Tracking and Keplerian Element Data

This shows tracking and keplerian element data for the satellite.

Feedback or suggestion? Click here.




ElementValue
Catalog25338
NameNOAA 15
Epoch Orbit27560
Epoch Day325.15244678
Epoch Year2022
RAAN352.5368
Inclination98.6299
Eccentricity0.001011
Argument of Perigee195.1299
Mean Anonmoly164.958
Mean Motion14.26198579
Decay Rate1.54E-06
L11 25338U 98030A 22325.15244678 .00000154 00000+0 82305-4 0 9993
L22 25338 98.6299 352.5368 0010110 195.1299 164.9580 14.26198579275602



Live tracking and technical data element details for NOAA 15 (NORAD 25338). NOAA 15 can be tracked NOW for your location showing map with azimuth and elevation plus other details from your city location.







IsCatalogInMostPopularTable: catalog: 25338, numindb: 675
Update: records affected: 1



GetName: 25338 NOAA 15

Hit Count: updated at: Mon, 28 Nov 2022 04:25:35 GMT